Skip Page Navigation
NASA JPL Caltech
NASA Logo - Jet Propulsion Laboratory + View the NASA Portal
+ Center for Near-Earth Object Studies
JPL Home Earth Solar System Stars & Galaxies Technology
JPL Solar System Dynamics
BODIES ORBITS EPHEMERIDES TOOLS PHYSICAL DATA DISCOVERY FAQ SITE MAP
IMPORTANT: The SSD Announcement email list is now available. Major changes are coming in the near future, including possible hostname and/or URL changes. To be notified of such changes, subscribe to this email list.

Please visit this page for more details.


JPL Small-Body Database Browser
Search: [ help ]  
22056 (2000 AU31)
Classification: Jupiter Trojan          SPK-ID: 2022056
Ephemeris | Orbit Diagram | Orbital Elements | Mission Design | Physical Parameters | Discovery Circumstances ]

[ show orbit diagram ]
Orbital Elements at Epoch 2459000.5 (2020-May-31.0) TDB
Reference: JPL 18 (heliocentric ecliptic J2000)
 Element Value Uncertainty (1-sigma)   Units 
e .1458821374771241 6.8729e-08  
a 5.140642659801674 1.0589e-07 au
q 4.390714720583718 4.1224e-07 au
i 7.196228721470526 5.5785e-06 deg
node 35.85574353625638 4.5792e-05 deg
peri 341.8636479061927 4.8971e-05 deg
M 354.62292287023 1.8064e-05 deg
tp 2459064.086997130749
(2020-Aug-02.58699713)
0.00021388 TDB
period 4257.204874434956
11.66
0.00013154
3.601e-07
d
yr
n .08456252649757232 2.6128e-09 deg/d
Q 5.890570599019631 1.2134e-07 au
  Orbit Determination Parameters
   # obs. used (total)      942  
   data-arc span      12076 days (33.06 yr)  
   first obs. used      1986-11-05  
   last obs. used      2019-11-28  
   planetary ephem.      DE431  
   SB-pert. ephem.      SB431-N16  
   condition code      0  
   norm. resid. RMS      .54037  
   source      ORB  
   producer      Otto Matic  
   solution date      2019-Dec-04 00:18:56  

Additional Information
 Earth MOID = 3.39384 au 
 Jupiter MOID = .416473 au 
 T_jup = 2.963 
[ show covariance matrix ]

Ephemeris | Orbit Diagram | Orbital Elements | Mission Design | Physical Parameters | Discovery Circumstances ]

Physical Parameter Table
Parameter Symbol Value Units Sigma Reference Notes
absolute magnitude H 11.9   n/a MPO502329  
diameter diameter 24.775 km 0.486 urn:nasa:pds:neowise_diameters_albedos::2.0[jupiter_trojans] (http://adsabs.harvard.edu/abs/2011ApJ...742...40G)  
rotation period rot_per 358. h n/a LCDB (Rev. 2019-August); Warner et al., 2009 Result based on less than full coverage, so that the period may be wrong by 30 percent or so.
Published Reference List:
[Ryan, E.L.; Sharkey, B.N.L.; Woodward, C.E. (2017) Astron. J. 153, A116.]
[Szabo, Gy.M.; Pal, A.; Kiss, Cs.; Kiss, L.L.; et al. (2017) Astron. Astrophys. 599, A44.]
geometric albedo albedo 0.066   0.013 urn:nasa:pds:neowise_diameters_albedos::2.0[jupiter_trojans] (http://adsabs.harvard.edu/abs/2011ApJ...742...40G)  

22056 (2000 AU31)          Discovered 2000-Jan-03 by LINEAR at Socorro
Reference: 20010208/Numbers.arcLast Updated: 2004-04-19

Alternate Designations
 2000 AU31 = 1996 RS32 
Ephemeris | Orbit Diagram | Orbital Elements | Mission Design | Physical Parameters | Discovery Circumstances ]
ABOUT SSD CREDITS/AWARDS PRIVACY/COPYRIGHT GLOSSARY LINKS
FirstGov 2020-May-27 10:35 UT
(server date/time)  
NASA Home Page
Site Manager:   Ryan S. Park
Webmaster  Alan B. Chamberlin